NOAA 16 DEB, 41243

Orbit data source: Space-Track

NOAA 16 DEB, 41243 is space debris in SSO originally from a launch on Thu, 21 Sep 2000 UTC launched from the Air Force Western Test Range (AFWTR). Debris objects in space refer to the collection of defunct objects orbiting the Earth. Examples of debris include non-operational satellites, rocket bodies, and fragments generated from explosions, collisions, or faulty payload assembly.

Loading next visibility...
NOAA 16 DEB details
Identifier
41243, 2000-055ET
Orbit
SSO
Last TLE update2 days ago
Origin
Flag of USNOAA (US)
ManufacturerUnknown
MissionSpacecraft
Bus & MotorUnknown
MassUnknown
Launch date (UTC)
2000-09-21 (24 years ago)
Launch vehicleUnknown
Launch site
Air Force Western Test Range (AFWTR)
Object type
Payload
Rocket body
Debris
Shape & HBRUnknown
Radar Cross SectionSmall (<0.1 m²)

Expand to show TLE details & history

TLE from 2 days ago
0 NOAA 16 DEB
1 41243U 00055ET  24360.16243508  .00008344  00000-0  36956-2 0  9998
2 41243  98.7507  74.1334 0005396 179.3725 180.7461 14.23341144463312
Epoch: 2024-12-25T03:53Z
Definitive object data (Epoch: 2024-12-25T03:53:54.39Z)
Latitude-0.00004°
Longitude-78.50336°
Altitude820.874 km
Speed7.441 km/s
True Right ascension04h 56m 32s
True Declination0° 00' 00"
Sunlit
Object was in full shadow at TLE epoch
Visualization TLE readout
Latitude34.5067°
Longitude109.31376°
Altitude815.134 km
Speed7.451 km/s
Apparent Right ascension14h 19m 08s
Apparent Declination0° 08' 51"
Sunlit
Object is in daylight
Visualization observer readout
Local Sidereal Time22:08:33
Azimuth288.248° WNW
Elevation-20.735°
Doppler factor1
Orbital elements
Apogee altitude815.111 km
Perigee altitude807.352 km
Semi-major axis7,189.369 km
Eccentricity0.0005396
Inclination98.7507°
RAAN74.1334°
Arg. of periapsis179.3725°
True anomaly180.7453°
Mean anomaly180.7461°
Eccentric anomaly180.7457°
Mean motion3.56047 °/min
BSTAR0.0036956
Orbital period101.11 mins
Loading maneuver chart data...
Loading historical data...
Loading historical data...
Loading historical data...
Loading historical data...
Loading historical data...
Loading historical data...
Loading historical data...

NOAA 16 DEB Visibility forecast

Observer location: undefined°, undefined

Span
Click to sort rows by Start time (UTC) header in descending order
Start Az.
Max El. time (UTC)
Max El. Az.
Max El.
End time (UTC)
End Az.
9 mins2024-12-27 04:56:20.596Z157.13° SSE2024-12-27 05:01:20.596Z38.476° NE43.305°2024-12-27 05:05:20.596Z351.355° N
7 mins2024-12-27 17:14:20.596Z44.276° NE2024-12-27 17:17:20.596Z87.661° E26.009°2024-12-27 17:21:20.596Z149.628° SSE
7 mins2024-12-27 18:54:20.596Z345.914° N2024-12-27 18:57:20.596Z299.77° NW28.635°2024-12-27 19:01:20.596Z235.668° WSW
|